DECAYED

STARLINK-1734, 46325 (Decayed)

Orbit data source: Space-Track

STARLINK-1734, 46325 was a payload satellite owned by SpaceX/Seattle (US) in LEO that was launched on Thu, 03 Sep 2020 UTC via an FALCON 9 launch vehicle from the Air Force Eastern Test Range (AFETR). Payload-class satellites include a variety of spacecraft equipped with specific instruments for various scientific and technological missions. These include communications satellites like Starlink; space stations such as the ISS; scientific satellites like the Hubble; Earth observation satellites from companies like Planet Labs, Umbra, and HawkEye 360; GPS; miniature CubeSats for education and research; and military/defense satellites.

Not visible in the next 10 days
Identifier
46325, 2020-062A
Orbit
Decayed
Country
Flag of USUS
Related business
Manufacturer
SpaceX/Seattle
Mission
Decayed Commercial Communications
Bus & Motor
STARLINK, Unknown motor
Mass
260 kg wet, ~248 kg dry
Launch date (UTC)
2020-09-03 (6 years ago)
Launch vehicle
FALCON 9
Launch site
Air Force Eastern Test Range (AFETR)
Object type
Payload
Rocket body
Debris
Shape & HBR
Box + 1 Pan, 10.1 m
Radar Cross Section
13.562 m², Large (>1 m²)

Expand to show TLE details & history
Last TLE update: 4 months ago

TLE from 4 months ago
0 STARLINK-1734
1 46325U 20062A   25358.80578388  .09509045  12327-4  68890-3 0  9995
2 46325  53.0034 222.4640 0006073 248.9352 111.1044 16.39997360295456
Epoch: 2025-12-24T19:20Z
TLE epoch observation values (Epoch: 2025-12-24T19:20:19.727Z)
Latitude
-0.00007°
Longitude
-161.18815°
Altitude
168.167 km
Speed
7.806 km/s
True Right ascension
14h 49m 51s
True Declination
0° 00' 00"
Sunlit
Object was in daylight at epoch
Visualization orbit readout
Latitude
Unknown
Longitude
Unknown
Altitude
Unknown
Speed
Unknown
Apparent Right ascension
Unknown
Apparent Declination
Unknown
Sunlit
N/A
Visualization observer readout
Local Sidereal Time
04:54:51
Azimuth
Unknown
Elevation
Unknown
Doppler factor
Unknown
Orbital elements
Apogee altitude
170.079 km
Perigee altitude
162.13 km
Semi-major axis
6,544.241 km
Eccentricity
0.00061
Inclination
53.0034°
RAAN
222.464°
Arg. of periapsis
248.9352°
True anomaly
111.16931°
Mean anomaly
111.1044°
Eccentric anomaly
111.13685°
Mean motion
4.09972 °/min
Orbital period
87.81 mins
BSTAR
0.0006889
Loading maneuver chart data...
Computing Atmospheric mass density...
Loading historical data...
Loading historical data...
Loading historical data...
Loading historical data...
Loading historical data...
Loading historical data...
Loading historical data...

Documentation

Showing up to 5 results
|